Weather History for CYQZ - September, 2013

Change the Weather History Date:

Friday, September 20, 2013

  Actual Average Record
Temperature  
Mean Temperature 62 °F -  
Max Temperature 68 °F 60 °F 78 °F (2012)
Min Temperature 53 °F 37 °F 30 °F (2003)
Degree Days  
Heating Degree Days 4    
Growing Degree Days 12 (Base 50)    
Moisture  
Dew Point 44 °F    
Average Humidity 54    
Maximum Humidity 94    
Minimum Humidity 40    
Precipitation  
Precipitation 0.00 in - - ()
Sea Level Pressure  
Sea Level Pressure 29.60 in    
Wind  
Wind Speed 9 mph ()    
Max Wind Speed 16 mph    
Max Gust Speed 26 mph    
Visibility 9.0 miles    
Events Rain    
Averages and records for this station are not official NWS values.
T = Trace of Precipitation, MM = Missing Value Source: Averaged Metar Reports

Daily Weather History Graph

Daily Weather History Graph

Search for Another Location

Airport or City:

Trip Planner

Search our weather history database for the weather conditions in past years. The results will help you decide how hot, cold, wet, or windy it might be!

Date:

Astronomy

Sep. 20, 2013 Rise Set
Actual Time 6:53 AM PDT 7:12 PM PDT
Civil Twilight 6:18 AM PDT 7:46 PM PDT
Nautical Twilight 5:37 AM PDT 8:27 PM PDT
Astronomical Twilight 4:54 AM PDT 9:10 PM PDT
Moon 7:29 PM PDT (9/20) 8:30 AM PDT (9/20)
Length of Visible Light 13h 28m
Length of Day
12h 19m
Full, 98% of the Moon is Illuminated
Sep 20
Full
Sep 26
Last Quarter
Oct 4
New
Oct 11
First Quarter
Oct 18
Full

Hourly Weather History & Observations

Time (PDT) Temp. Dew Point Humidity Pressure Visibility Wind Dir Wind Speed Gust Speed Precip Events Conditions
12:00 AM 62.6 °F 39.2 °F 42% 29.71 in 9.0 mi South 16.1 mph 23.0 mph N/A   Clear
1:00 AM 60.8 °F 39.2 °F 45% 29.70 in 9.0 mi SSE 13.8 mph - N/A   Clear
2:00 AM 59.0 °F 39.2 °F 48% 29.70 in 9.0 mi SSE 12.7 mph - N/A   Clear
3:00 AM 60.8 °F 39.2 °F 45% 29.69 in 9.0 mi SSE 13.8 mph 21.9 mph N/A   Clear
4:00 AM 60.8 °F 39.2 °F 45% 29.69 in 9.0 mi SSE 13.8 mph 26.5 mph N/A   Clear
5:00 AM 59.0 °F 39.2 °F 48% 29.67 in 9.0 mi SE 12.7 mph 19.6 mph N/A   Clear
6:00 AM 59.0 °F 39.2 °F 48% 29.67 in 9.0 mi SSE 11.5 mph - N/A   Clear
7:00 AM 57.2 °F 39.2 °F 51% 29.67 in 9.0 mi SSE 10.4 mph - N/A   Clear
8:00 AM 59.0 °F 39.2 °F 48% 29.67 in 9.0 mi SSE 12.7 mph - N/A   Clear
9:00 AM 60.8 °F 39.2 °F 45% 29.66 in 9.0 mi SSE 15.0 mph - N/A   Partly Cloudy
10:00 AM 62.6 °F 41.0 °F 45% 29.66 in 9.0 mi South 10.4 mph - N/A   Partly Cloudy
11:00 AM 64.4 °F 42.8 °F 45% 29.64 in 9.0 mi South 10.4 mph - N/A   Clear
12:00 PM 62.6 °F 42.8 °F 48% 29.63 in 9.0 mi South 10.4 mph - N/A   Clear
1:00 PM 64.4 °F 42.8 °F 45% 29.61 in 9.0 mi South 5.8 mph - N/A   Clear
2:00 PM 66.2 °F 42.8 °F 43% 29.59 in - North - - N/A   Unknown
3:00 PM 68.0 °F 42.8 °F 40% 29.56 in - South 6.9 mph - N/A   Unknown
4:00 PM 68.0 °F 44.6 °F 43% 29.55 in 9.0 mi SSE 4.6 mph - N/A   Overcast
5:00 PM 66.2 °F 50.0 °F 56% 29.53 in 9.0 mi Variable 2.3 mph - N/A   Overcast
6:00 PM 68.0 °F 46.4 °F 46% 29.51 in 9.0 mi Variable 2.3 mph - N/A   Overcast
7:00 PM 68.0 °F 42.8 °F 40% 29.51 in 9.0 mi South 3.5 mph - N/A   Mostly Cloudy
7:29 PM 66.2 °F 46.4 °F 49% 29.53 in 9.0 mi WSW 9.2 mph - N/A Rain Light Rain
7:47 PM 62.6 °F 50.0 °F 63% 29.54 in 9.0 mi Variable 5.8 mph - N/A   Overcast
8:00 PM 62.6 °F 48.2 °F 59% 29.54 in 9.0 mi Variable 2.3 mph - N/A   Overcast
9:00 PM 59.0 °F 48.2 °F 67% 29.52 in 9.0 mi Calm Calm - N/A   Overcast
10:00 PM 55.4 °F 48.2 °F 77% 29.53 in 9.0 mi North 5.8 mph - N/A   Overcast
10:48 PM 57.2 °F 50.0 °F 77% 29.56 in 9.0 mi South 12.7 mph 18.4 mph N/A   Overcast
10:49 PM 57.2 °F 50.0 °F 77% 29.57 in 9.0 mi SSW 12.7 mph 18.4 mph N/A Rain Light Rain
11:00 PM 55.4 °F 51.8 °F 88% 29.55 in 9.0 mi NE 6.9 mph - N/A Rain Light Rain
11:20 PM 53.6 °F 51.8 °F 94% 29.53 in 9.0 mi North 6.9 mph - N/A   Overcast